Morris, IL

3:36 AM CDT on September 27, 2016 (GMT -0500)
Morris

Weather History for KC09 - January, 2013

Change the Weather History Date:

Wednesday, January 2, 2013

  Actual Average (KLOT) Record (KLOT)
Temperature  
Mean Temperature 18 °F 24 °F  
Max Temperature 30 °F 31 °F 60 °F (2004)
Min Temperature 7 °F 16 °F -6 °F (2001)
Degree Days  
Heating Degree Days 46 41  
Month to date heating degree days 82  
Since 1 July heating degree days 2468  
Cooling Degree Days 0 0  
Month to date cooling degree days 0  
Year to date cooling degree days 0  
Moisture  
Dew Point 10 °F    
Average Humidity 70    
Maximum Humidity 85    
Minimum Humidity 42    
Precipitation  
Precipitation 0.00 in 0.07 in 1.39 in (1999)
Month to date precipitation 0.15  
Year to date precipitation 0.15  
Snow  
Snow 0.00 in 0.40 in 13.80 in (1999)
Month to date snowfall 0.7  
Since 1 July snowfall 10.9  
Snow Depth -    
Sea Level Pressure  
Sea Level Pressure 30.15 in    
Wind  
Wind Speed 7 mph (SSW)    
Max Wind Speed 17 mph    
Max Gust Speed 18 mph    
Visibility 10 miles    
Events      
T = Trace of Precipitation, MM = Missing Value Source: NWS Daily Summary

Daily Weather History Graph

Daily Weather History Graph

Search for Another Location

Airport or City:

Trip Planner

Search our weather history database for the weather conditions in past years. The results will help you decide how hot, cold, wet, or windy it might be!

Date:

Astronomy

Jan. 02, 2013 Rise Set
Actual Time 7:20 AM CST 4:35 PM CST
Civil Twilight 6:48 AM CST 5:07 PM CST
Nautical Twilight 6:14 AM CST 5:41 PM CST
Astronomical Twilight 5:40 AM CST 6:15 PM CST
Moon 10:12 PM CST (1/2) 9:57 AM CST (1/2)
Length of Visible Light 10h 18m
Length of Day
9h 15m
Waning Gibbous, 75% of the Moon is Illuminated
Jan 2
Waning Gibbous
Jan 4
Last Quarter
Jan 11
New
Jan 18
First Quarter
Jan 26
Full

Hourly Weather History & Observations

Time (CST) Temp. Windchill Dew Point Humidity Pressure Visibility Wind Dir Wind Speed Gust Speed Precip Events Conditions
12:15 AM 9.7 °F -0.1 °F 5.5 °F 83% 30.19 in 10.0 mi West 5.8 mph - N/A   Clear
12:35 AM 9.9 °F 1.6 °F 5.5 °F 83% 30.18 in 10.0 mi West 4.6 mph - N/A   Clear
12:55 AM 9.5 °F 1.2 °F 5.4 °F 83% 30.18 in 10.0 mi West 4.6 mph - N/A   Clear
1:15 AM 9.0 °F 2.4 °F 4.8 °F 83% 30.18 in 10.0 mi WSW 3.5 mph - N/A   Clear
1:35 AM 8.4 °F -0.1 °F 4.1 °F 83% 30.19 in 10.0 mi WSW 4.6 mph - N/A   Clear
1:55 AM 8.4 °F -0.1 °F 4.5 °F 84% 30.19 in 10.0 mi West 4.6 mph - N/A   Clear
2:15 AM 8.4 °F -0.1 °F 4.5 °F 84% 30.20 in 10.0 mi West 4.6 mph - N/A   Clear
2:35 AM 8.8 °F 0.4 °F 4.6 °F 83% 30.20 in 10.0 mi West 4.6 mph - N/A   Clear
2:55 AM 8.4 °F -2.8 °F 4.1 °F 83% 30.19 in 10.0 mi WNW 6.9 mph - N/A   Clear
3:15 AM 9.5 °F -0.3 °F 5.0 °F 82% 30.20 in 10.0 mi West 5.8 mph - N/A   Clear
3:35 AM 9.1 °F 0.8 °F 4.6 °F 82% 30.20 in 10.0 mi West 4.6 mph - N/A   Clear
3:55 AM 9.1 °F 0.8 °F 4.6 °F 82% 30.20 in 10.0 mi West 4.6 mph - N/A   Clear
4:15 AM 9.5 °F 3.0 °F 4.8 °F 81% 30.18 in 10.0 mi WSW 3.5 mph - N/A   Clear
4:35 AM 9.1 °F - 4.5 °F 81% 30.18 in 10.0 mi Calm Calm - N/A   Clear
4:55 AM 8.1 °F - 3.9 °F 83% 30.18 in 10.0 mi Calm Calm - N/A   Clear
5:15 AM 7.3 °F 0.5 °F 3.7 °F 85% 30.18 in 10.0 mi SW 3.5 mph - N/A   Clear
5:35 AM 9.5 °F - 4.8 °F 81% 30.18 in 10.0 mi Calm Calm - N/A   Clear
5:55 AM 10.4 °F - 5.0 °F 79% 30.17 in 10.0 mi Calm Calm - N/A   Clear
6:15 AM 9.3 °F 2.8 °F 4.8 °F 82% 30.18 in 10.0 mi SW 3.5 mph - N/A   Clear
6:35 AM 8.4 °F 1.8 °F 4.3 °F 83% 30.18 in 10.0 mi SW 3.5 mph - N/A   Clear
6:55 AM 9.0 °F 2.4 °F 4.8 °F 83% 30.19 in 10.0 mi SSW 3.5 mph - N/A   Clear
7:15 AM 9.7 °F 3.2 °F 5.5 °F 83% 30.20 in 10.0 mi SSW 3.5 mph - N/A   Clear
7:35 AM 8.8 °F - 4.8 °F 84% 30.21 in 10.0 mi Calm Calm - N/A   Clear
7:55 AM 10.8 °F - 6.8 °F 84% 30.21 in 10.0 mi Calm Calm - N/A   Clear
8:15 AM 12.9 °F 6.9 °F 7.9 °F 80% 30.21 in 10.0 mi SSW 3.5 mph - N/A   Clear
8:35 AM 14.0 °F 6.5 °F 8.4 °F 78% 30.21 in 10.0 mi SSW 4.6 mph - N/A   Clear
8:55 AM 15.8 °F 6.1 °F 9.5 °F 76% 30.21 in 10.0 mi SSW 6.9 mph - N/A   Scattered Clouds
9:15 AM 17.2 °F 8.9 °F 9.7 °F 72% 30.21 in 10.0 mi SSW 5.8 mph - N/A   Scattered Clouds
9:35 AM 18.7 °F 9.5 °F 11.3 °F 73% 30.20 in 10.0 mi SSW 6.9 mph - N/A   Clear
9:55 AM 20.1 °F 11.3 °F 11.1 °F 68% 30.20 in 10.0 mi SSW 6.9 mph - N/A   Clear
10:15 AM 21.9 °F 11.7 °F 9.7 °F 59% 30.19 in 10.0 mi South 9.2 mph - N/A   Clear
10:35 AM 23.7 °F 14.0 °F 9.5 °F 55% 30.19 in 10.0 mi South 9.2 mph - N/A   Clear
10:55 AM 25.5 °F 16.2 °F 9.1 °F 50% 30.18 in 10.0 mi SSW 9.2 mph - N/A   Clear
11:15 AM 26.4 °F 16.0 °F 8.2 °F 46% 30.16 in 10.0 mi South 11.5 mph - N/A   Clear
11:35 AM 27.5 °F 18.0 °F 8.6 °F 45% 30.15 in 10.0 mi SSW 10.4 mph - N/A   Clear
11:55 AM 28.8 °F 19.5 °F 8.8 °F 43% 30.14 in 10.0 mi SSW 10.4 mph 16.1 mph N/A   Clear
12:15 PM 29.5 °F 19.3 °F 9.0 °F 42% 30.13 in 10.0 mi South 12.7 mph 16.1 mph N/A   Clear
12:35 PM 30.6 °F 19.8 °F 10.2 °F 43% 30.12 in 10.0 mi South 15.0 mph - N/A   Clear
12:55 PM 30.2 °F 20.2 °F 10.4 °F 44% 30.11 in 10.0 mi SSW 12.7 mph - N/A   Clear
1:15 PM 30.6 °F 20.2 °F 10.8 °F 44% 30.11 in 10.0 mi SSW 13.8 mph - N/A   Clear
1:35 PM 30.9 °F 21.7 °F 11.5 °F 44% 30.11 in 10.0 mi SSW 11.5 mph - N/A   Clear
1:55 PM 30.7 °F 20.4 °F 12.9 °F 48% 30.10 in 10.0 mi SSW 13.8 mph 18.4 mph N/A   Clear
2:15 PM 30.9 °F 20.7 °F 14.0 °F 50% 30.10 in 10.0 mi SSW 13.8 mph - N/A   Clear
2:35 PM 30.9 °F 20.7 °F 14.2 °F 50% 30.10 in 10.0 mi SSW 13.8 mph - N/A   Clear
2:55 PM 30.7 °F 20.9 °F 14.5 °F 51% 30.11 in 10.0 mi South 12.7 mph - N/A   Clear
3:15 PM 30.7 °F 20.4 °F 15.3 °F 53% 30.11 in 10.0 mi South 13.8 mph - N/A   Clear
3:35 PM 30.4 °F 19.5 °F 15.6 °F 54% 30.11 in 10.0 mi South 15.0 mph - N/A   Clear
3:55 PM 29.1 °F 17.1 °F 15.6 °F 57% 30.11 in 10.0 mi South 17.3 mph - N/A   Clear
4:15 PM 28.2 °F 17.7 °F 15.4 °F 59% 30.11 in 10.0 mi South 12.7 mph - N/A   Clear
4:35 PM 26.8 °F 16.5 °F 15.4 °F 62% 30.11 in 10.0 mi South 11.5 mph - N/A   Clear
4:55 PM 24.8 °F 14.6 °F 15.8 °F 69% 30.11 in 10.0 mi South 10.4 mph - N/A   Clear
5:15 PM 24.8 °F 15.3 °F 14.9 °F 66% 30.11 in 10.0 mi South 9.2 mph - N/A   Clear
5:35 PM 23.9 °F 12.9 °F 14.9 °F 69% 30.12 in 10.0 mi South 11.5 mph - N/A   Clear
5:55 PM 23.4 °F 14.3 °F 14.7 °F 70% 30.12 in 10.0 mi South 8.1 mph - N/A   Clear
6:15 PM 23.0 °F 12.4 °F 14.7 °F 71% 30.12 in 10.0 mi South 10.4 mph - N/A   Clear
6:35 PM 23.0 °F 13.9 °F 14.0 °F 68% 30.12 in 10.0 mi South 8.1 mph - N/A   Clear
6:55 PM 21.4 °F 11.1 °F 14.0 °F 73% 30.12 in 10.0 mi SSW 9.2 mph - N/A   Clear
7:15 PM 21.2 °F 10.9 °F 14.0 °F 74% 30.13 in 10.0 mi SSW 9.2 mph - N/A   Clear
7:35 PM 19.0 °F 10.0 °F 13.1 °F 78% 30.13 in 10.0 mi SSW 6.9 mph - N/A   Clear
7:55 PM 18.5 °F 9.3 °F 12.7 °F 78% 30.13 in 10.0 mi SSW 6.9 mph - N/A   Clear
8:15 PM 18.5 °F 8.4 °F 13.1 °F 79% 30.13 in 10.0 mi SSW 8.1 mph - N/A   Clear
8:35 PM 20.3 °F 10.6 °F 14.2 °F 77% 30.12 in 10.0 mi SSW 8.1 mph - N/A   Clear
8:55 PM 20.3 °F 10.6 °F 14.2 °F 77% 30.12 in 10.0 mi SSW 8.1 mph - N/A   Clear
9:15 PM 20.3 °F 9.8 °F 14.4 °F 78% 30.12 in 10.0 mi SSW 9.2 mph - N/A   Clear
9:35 PM 20.3 °F 9.8 °F 14.4 °F 78% 30.11 in 10.0 mi SSW 9.2 mph - N/A   Clear
9:55 PM 20.8 °F 9.0 °F 14.9 °F 78% 30.12 in 10.0 mi SSW 11.5 mph - N/A   Scattered Clouds
10:15 PM 21.6 °F 9.9 °F 15.1 °F 76% 30.12 in 10.0 mi SSW 11.5 mph - N/A   Overcast
10:35 PM 22.1 °F 10.6 °F 15.4 °F 76% 30.11 in 10.0 mi SSW 11.5 mph - N/A   Overcast
10:55 PM 22.6 °F 11.3 °F 15.6 °F 74% 30.11 in 10.0 mi SSW 11.5 mph - N/A   Overcast
11:15 PM 23.0 °F 12.4 °F 15.8 °F 74% 30.12 in 10.0 mi SW 10.4 mph - N/A   Overcast
11:35 PM 23.5 °F 14.5 °F 16.5 °F 75% 30.11 in 10.0 mi SSW 8.1 mph - N/A   Overcast
11:55 PM 23.9 °F 15.0 °F 16.7 °F 74% 30.11 in 10.0 mi SW 8.1 mph - N/A   Overcast